#timestamp,LO_Frequency,Hit,StdDev 
1693483215.7,286046996.5,P
1693483235.6,286046997.3,N
1693483255.4,286046995.8,Y
1693483275.2,286046996.9,P
1693483295.1,286046997.1,P
1693483296.0,286046997.1,P
1693483315.8,286046996.5,Y
1693483335.6,286047000.3,P
1693483355.5,286046998.8,N
1693483375.3,286046996.6,N
1693483395.1,286046997.3,N
1693483415.9,286046997.8,N
1693483435.7,286046995.8,Y
1693483455.5,286046997.4,P
1693483475.4,286046997.9,P
1693483495.2,286046996.2,P
1693483515.0,286046995.6,Y
1693483516.0,286046995.6,P
1693483535.8,286046999.2,N
1693483555.6,286046998.7,N
1693483575.4,286046997.4,N
1693483595.3,286046995.0,Y
1693483615.1,286046999.6,P
1693483635.9,286046996.6,P
1693483655.7,286046996.7,N
1693483675.5,286046997.7,N
1693483695.4,286046997.5,N
1693483715.2,286046993.8,Y
1693483735.0,286046997.5,P
1693483735.9,286046997.5,P
1693483755.8,286046994.9,P
1693483775.6,286046995.5,Y
1693483795.4,286046998.4,P
1693483815.3,286046998.1,N
1693483835.1,286046998.9,N
1693483836.0,286046998.9,N
1693483855.8,286046996.5,Y
1693483875.7,286046999.9,P
1693483895.5,286047001.7,N
1693483915.3,286047001.6,N
1693483935.2,286047004.4,Y
1693483955.9,286047001.6,P
1693483975.7,286047002.6,P
1693483995.6,286047002.6,N
1693484015.4,286047004.3,Y
1693484035.2,286047001.0,P
1693484055.1,286047002.3,P
1693484056.0,286047002.3,P
1693484075.8,286046998.1,Y
1693484095.6,286046999.4,P
1693484115.5,286046998.8,N
1693484135.3,286047000.5,N
1693484155.1,286047000.8,N
1693484175.9,286047003.6,Y
1693484195.7,286047006.6,P
1693484215.5,286047004.3,N
1693484235.4,286047002.5,N
1693484255.2,286047000.4,N
1693484275.0,286047000.9,N
1693484276.0,286047000.9,N
1693484295.8,286046999.7,N
1693484315.6,286047000.1,N
1693484335.4,286047002.2,N
1693484355.3,286047002.0,N
1693484375.1,286047000.9,N
1693484395.8,286047000.1,N
1693484415.7,286046999.7,N
1693484435.5,286047001.9,N
1693484455.3,286047001.9,N
1693484475.2,286047002.5,N
1693484495.0,286046999.7,N
1693484495.9,286046999.7,N
1693484515.7,286047002.1,N
1693484535.6,286047004.4,N
1693484555.4,286047004.2,N
1693484575.2,286047003.2,N
1693484595.1,286047003.5,N
1693484596.0,286047003.5,N
1693484615.8,286047006.0,Y
1693484635.7,286047002.7,P
1693484655.5,286047002.3,P
1693484675.3,286047002.2,P
1693484695.2,286047001.3,Y
1693484715.9,286047000.2,P
1693484735.7,286047002.8,N
1693484755.6,286046999.7,N
1693484775.4,286047001.5,N
1693484795.2,286047002.8,N
1693484815.1,286047001.8,N
1693484816.0,286047001.8,N
1693484835.8,286047002.4,N
1693484855.6,286047002.2,N
1693484875.5,286047001.8,N
1693484895.3,286047003.6,Y
1693484915.1,286047001.3,P
1693484935.9,286047004.4,P
1693484955.7,286047002.2,N
1693484975.5,286047014.0,Y
1693484995.4,286047003.3,P
1693485015.2,286047000.3,N
1693485035.0,286047001.0,N
1693485035.9,286047001.0,N
1693485055.8,286046997.2,N
1693485075.6,286046999.5,N
1693485095.4,286046999.1,N
1693485115.3,286046997.8,N
1693485135.1,286046995.0,N
1693485155.8,286046997.8,N
1693485175.7,286046997.3,N
1693485195.5,286046996.5,N
1693485215.3,286046999.2,N
1693485235.2,286046999.0,N
1693485255.9,286046998.9,N
1693485275.7,286046999.4,N
1693485295.6,286046999.5,N
1693485315.4,286046998.6,N
1693485335.2,286047001.0,N
1693485355.1,286046998.1,N
1693485356.0,286046998.1,N
1693485375.8,286047000.3,N
1693485395.6,286046999.9,N
1693485415.5,286047002.7,N
1693485435.3,286047000.4,N
1693485455.1,286047002.1,N
1693485475.9,286047001.8,N
1693485495.7,286047004.1,N
1693485515.5,286047001.7,N
1693485535.4,286047002.7,N
1693485555.2,286047006.7,Y
1693485575.0,286047001.5,P
1693485575.9,286047001.5,N
1693485595.8,286047000.0,N
1693485615.6,286046999.8,N
1693485635.4,286046999.9,N
1693485655.3,286047001.6,N
1693485675.1,286047003.5,Y
1693485695.8,286047001.5,P
1693485715.7,286046999.7,N
1693485735.5,286047000.9,N
1693485755.3,286047000.4,N
1693485775.2,286047002.0,Y
1693485795.0,286046998.3,P
1693485795.9,286046998.3,N
1693485815.7,286046999.5,N
1693485835.6,286046999.2,N
1693485855.4,286046996.6,Y
1693485875.2,286046999.5,P
1693485895.1,286046999.3,P
1693485896.0,286046999.3,P
1693485915.8,286046996.9,Y
1693485935.7,286046999.2,P
1693485955.5,286046998.9,P
1693485975.3,286047002.5,P
1693485995.2,286047011.9,Y
1693486015.9,286046998.3,P
1693486035.7,286046996.9,P
1693486055.6,286046996.6,N
1693486075.4,286046999.6,N
1693486095.2,286046997.2,N
1693486115.1,286046996.3,N
1693486116.0,286046996.3,N
1693486135.8,286046993.5,Y
1693486155.6,286046996.1,P
1693486175.5,286046996.4,P
1693486195.3,286046994.0,P
1693486215.1,286046994.1,Y
1693486235.9,286046995.4,P
1693486255.7,286046995.3,P
1693486275.5,286046995.9,P
1693486295.4,286046993.7,Y
1693486315.2,286046999.1,P
1693486335.0,286046999.1,N
1693486335.9,286046999.1,N
1693486355.8,286046999.4,N
1693486375.6,286046996.5,N
1693486395.4,286046997.7,N
1693486415.3,286046997.1,N
1693486435.1,286046997.9,N
1693486455.8,286046994.0,Y
1693486475.7,286046997.6,P
1693486495.5,286046995.7,P
1693486515.3,286046998.0,N
1693486535.2,286046996.2,Y
1693486555.0,286046997.4,P
1693486555.9,286046997.4,P
1693486575.7,286046994.9,P
1693486595.6,286046997.7,N
1693486615.4,286046997.3,N
1693486635.2,286046997.8,N
1693486655.1,286046996.3,Y
1693486656.0,286046996.3,P
1693486675.8,286046998.9,N
1693486695.7,286046997.5,N
1693486715.5,286046997.8,N
1693486735.3,286046997.5,N
1693486755.2,286047000.1,N
1693486775.9,286047002.1,N
1693486795.7,286046997.9,N
